Theta_e
296 296 296 295 295 295 295 295 295 296 296 295 296 296 296 296 296 297 298 299 300 301 302 303 303 303 303 303 303 303 304 304 304 305 305 306 306 306 307 308 309 312
295 295 295 295 295 295 295 295 295 295 295 295 295 295 295 295 295 296 296 296 297 298 299 300 301 302 303 303 303 303 304 304 304 304 304 305 305 306 306 307 307 308
294 294 295 295 295 295 295 295 295 295 295 295 295 295 295 295 295 295 295 296 296 296 296 297 298 299 301 302 303 303 303 303 304 304 304 304 305 306 306 308 309 309
294 294 294 294 294 294 294 294 294 294 294 294 295 295 295 295 295 295 295 296 296 296 296 296 296 296 297 299 300 302 303 303 303 303 303 304 304 305 305 307 309 310
293 293 293 293 293 293 293 293 293 293 293 294 294 294 294 294 294 295 295 295 295 296 296 296 296 296 296 296 297 299 301 302 302 302 303 303 303 303 304 305 306 308
292 292 292 292 292 292 292 292 292 292 292 292 293 293 293 293 294 294 294 294 295 295 295 295 295 296 296 296 295 296 298 300 301 301 302 302 302 303 303 303 304 305
292 291 292 292 291 292 292 291 291 291 291 291 292 292 292 292 293 293 293 293 294 294 294 295 295 295 295 296 295 294 295 297 298 299 299 300 300 301 302 302 303 303
291 291 290 290 290 290 290 290 290 290 290 290 291 291 291 291 291 292 292 292 293 293 293 294 294 295 295 294 294 294 294 295 295 295 296 297 298 299 299 300 301 302
289 289 289 289 289 289 289 289 289 289 289 289 289 289 290 290 290 291 291 292 292 292 293 293 293 294 294 294 293 293 293 293 293 293 294 295 296 296 297 298 299 300
288 288 288 288 288 288 288 288 288 288 288 288 288 288 288 289 289 290 290 291 291 292 292 292 293 293 293 293 292 292 291 291 291 292 292 293 294 295 296 296 297 297
288 288 288 288 288 287 287 287 287 287 287 287 287 288 288 288 288 289 289 290 290 291 291 292 292 292 291 291 290 290 290 290 290 290 291 291 293 293 294 294 295 295
287 287 287 287 287 287 287 287 287 287 287 287 287 287 287 288 288 288 288 289 289 290 290 291 291 290 290 289 289 288 289 289 289 289 290 290 291 292 292 293 294 294
287 287 287 287 287 286 286 286 286 286 286 286 287 287 287 287 287 287 288 288 289 289 289 289 290 289 288 288 288 288 288 289 289 289 289 289 290 290 291 292 292 293
286 286 286 286 286 286 286 286 286 286 286 286 286 286 286 287 287 287 287 287 288 288 288 288 288 287 287 287 287 288 288 289 289 289 289 289 290 290 290 291 292 292
286 286 286 286 286 285 285 285 285 285 285 285 285 286 286 286 286 286 286 287 287 287 287 287 287 286 286 286 287 288 288 289 289 289 289 289 290 290 290 291 291 291
285 285 285 285 285 285 285 285 285 285 285 285 285 285 285 286 286 286 286 286 286 286 286 286 286 285 285 286 287 288 288 288 289 289 289 289 289 289 290 290 290 290
285 285 285 285 285 285 285 285 285 285 285 285 285 285 285 285 285 285 285 286 286 286 286 286 285 285 285 286 287 288 288 288 288 288 288 288 288 288 289 289 289 289
285 285 285 285 285 285 285 285 285 285 285 285 285 285 285 285 285 285 285 285 285 285 286 286 285 285 285 286 287 287 288 288 288 288 288 288 288 288 288 288 288 289
284 284 284 284 284 284 284 284 284 285 285 284 284 284 284 284 284 285 285 285 285 285 285 285 285 285 285 285 286 287 287 287 287 287 287 287 287 287 287 288 288 288
284 284 284 284 284 284 284 284 284 284 284 284 284 284 284 284 284 284 284 285 285 285 285 285 284 284 284 284 286 286 287 287 286 286 286 286 287 287 287 287 288 288
283 283 283 283 283 283 283 283 283 283 283 283 284 283 283 284 284 284 284 284 284 284 285 284 284 283 283 284 285 286 286 285 285 285 285 286 286 286 287 287 288 288
282 282 283 283 283 283 283 283 283 283 283 283 283 283 283 283 283 283 283 283 284 284 284 284 284 282 282 283 284 284 284 284 283 284 284 284 285 286 286 287 287 287
279 281 282 282 282 282 282 282 282 282 282 283 283 283 283 282 283 283 283 283 283 283 283 284 283 282 282 282 283 283 283 283 282 282 283 284 285 285 285 285 286 286
277 279 280 281 281 282 282 282 282 282 282 282 282 282 282 282 282 282 282 282 282 282 282 282 281 280 281 281 281 282 282 282 282 282 283 284 284 284 284 284 284 284
275 277 278 280 281 281 281 281 281 281 282 282 282 282 282 282 281 281 282 281 281 280 280 280 279 279 280 280 280 281 281 281 281 282 283 283 283 283 283 283 283 283
274 275 276 278 279 280 280 281 280 281 281 281 281 281 281 281 281 281 281 281 279 279 279 278 278 278 278 279 279 280 281 281 281 281 282 282 282 282 282 282 282 282
Wind_Speed
19 18 18 18 18 18 17 17 16 16 16 16 16 16 15 15 14 14 13 12 11 10 9 8 8 8 8 8 8 9 9 10 12 12 13 14 15 15 16 17 17 17
19 19 19 19 19 18 18 18 17 17 17 17 17 17 16 16 16 16 16 15 15 14 13 11 10 9 9 8 8 9 9 9 10 10 11 13 14 15 15 16 17 17
18 18 18 18 17 17 17 17 17 17 17 17 17 17 17 17 17 18 18 18 18 17 17 16 14 12 11 10 10 9 9 9 9 10 10 11 12 13 14 15 16 17
17 16 16 16 16 16 15 15 15 16 15 16 16 16 16 17 17 17 18 18 19 19 19 19 18 17 15 13 12 11 10 10 10 11 11 11 11 12 13 14 15 16
16 15 15 15 14 14 14 14 15 15 15 15 15 15 15 16 16 17 17 18 18 19 19 20 20 19 19 18 16 14 12 11 11 11 12 12 12 13 13 14 15 16
15 14 14 14 13 13 13 14 15 14 15 15 14 14 15 15 16 16 16 17 18 18 19 19 20 20 20 19 18 17 15 13 12 12 12 13 13 13 13 14 15 16
14 14 14 13 13 13 13 14 14 14 15 15 14 15 15 15 16 16 16 17 17 17 18 18 19 19 19 19 18 18 17 15 15 15 14 14 14 14 13 14 15 16
15 15 14 13 13 14 14 14 14 14 14 14 14 15 15 16 16 16 17 17 16 17 17 18 19 19 19 19 18 17 17 16 16 17 16 15 15 15 15 15 15 16
15 15 14 14 14 14 14 14 14 14 14 14 15 15 15 16 16 17 17 17 17 17 17 17 18 18 18 18 16 15 16 16 16 16 15 14 15 15 16 16 16 16
15 15 13 13 14 14 14 14 14 14 14 14 15 15 15 16 16 16 16 17 17 18 18 18 17 16 16 15 13 14 16 16 16 16 15 14 14 14 15 16 16 17
13 13 12 13 13 13 13 13 13 13 13 14 14 15 15 16 16 17 17 18 18 19 19 18 18 16 15 14 14 15 16 17 17 17 16 15 14 14 15 15 16 17
11 11 11 11 11 11 12 12 12 13 13 14 15 15 16 16 17 17 18 18 18 19 19 19 18 16 14 15 16 16 15 15 16 17 17 17 16 15 15 16 16 17
10 9 9 9 9 10 10 10 11 12 12 13 14 15 16 16 17 17 18 19 19 19 19 19 18 15 15 17 17 16 15 15 15 16 17 18 18 17 16 16 17 18
9 9 8 8 8 8 8 9 9 10 11 12 13 14 15 16 16 17 18 18 18 19 19 18 17 15 16 17 15 15 16 15 14 15 16 16 17 17 17 17 17 17
9 8 7 6 6 6 6 7 8 8 9 10 11 12 13 13 14 15 16 17 17 18 18 18 17 15 15 15 15 15 16 15 15 15 15 16 16 17 18 17 17 18
8 7 6 6 5 5 5 5 6 6 7 8 9 9 10 11 11 13 14 15 16 17 17 17 16 14 13 14 14 15 15 15 15 15 15 15 17 18 19 19 19 20
8 7 6 4 4 4 4 4 5 5 6 7 7 8 8 9 10 11 12 13 14 15 16 16 15 14 13 14 14 14 15 15 14 14 14 14 16 18 20 21 22 22
9 8 6 5 4 3 2 3 3 4 5 6 6 7 8 8 9 10 10 12 13 13 14 15 15 14 13 14 15 15 16 16 14 13 13 13 15 17 19 21 22 23
10 9 7 6 5 4 3 2 2 3 4 5 6 6 7 8 9 9 10 11 12 12 13 13 14 13 13 14 15 15 16 16 15 14 14 14 16 17 19 19 20 22
11 10 8 6 5 4 3 3 2 2 3 4 5 6 7 8 9 9 10 11 12 12 12 13 13 12 11 13 15 15 16 16 15 14 15 16 17 18 19 19 20 21
11 10 9 8 6 5 3 2 2 3 3 3 4 5 7 8 9 10 11 11 12 12 12 12 13 11 11 13 15 16 17 16 15 15 16 17 18 19 19 20 20 21
11 11 10 9 7 6 4 2 2 2 3 3 4 5 6 8 9 10 11 11 12 12 13 13 13 11 11 12 14 16 17 16 17 17 18 18 19 20 20 20 21 21
9 9 10 9 8 6 5 3 3 2 2 3 4 5 7 8 8 9 10 11 11 12 12 13 13 11 10 12 14 15 16 17 18 19 20 20 21 20 21 23 23 23
8 8 8 8 8 7 5 3 3 2 2 3 4 6 7 8 9 9 9 9 10 10 10 12 12 11 10 11 14 14 15 16 18 20 21 21 22 22 23 24 25 25
6 7 7 7 7 6 5 3 2 2 2 3 5 6 7 8 9 9 9 9 9 9 9 9 10 10 9 10 12 13 13 15 17 18 18 19 22 24 25 25 26 27
5 5 5 5 5 5 5 4 2 2 2 3 4 6 7 8 9 9 9 9 9 9 8 7 8 9 9 9 10 10 11 13 14 13 15 17 20 21 23 26 28 30
Wind_Direction
100 97 93 90 87 85 82 80 75 70 65 60 56 53 48 45 40 36 35 32 26 20 11 1 352 342 332 324 316 310 305 301 298 297 296 293 293 293 292 290 289 286
98 95 93 90 86 84 81 79 76 72 68 62 57 52 48 44 40 36 35 33 30 27 23 17 8 357 348 339 331 327 323 317 312 309 306 303 301 298 296 296 294 291
96 93 90 86 83 80 77 74 71 68 65 59 54 50 45 41 38 35 32 30 29 26 24 23 19 13 3 351 341 337 335 332 329 324 317 316 316 312 308 305 301 298
92 88 86 81 78 74 71 68 64 61 58 53 49 44 41 37 34 33 30 27 26 24 22 21 19 17 13 6 357 347 340 337 336 331 325 324 325 325 323 320 313 307
89 85 81 77 74 69 64 60 57 54 50 46 43 37 34 31 28 27 26 25 23 22 20 19 16 14 13 12 11 4 355 348 343 336 332 329 327 327 327 326 323 318
86 82 78 73 70 64 59 56 52 49 45 41 37 32 28 26 22 21 20 20 20 19 18 17 16 13 11 12 12 11 9 4 358 350 343 338 332 329 330 330 329 327
87 82 78 73 70 65 60 57 51 47 44 39 34 30 26 23 20 18 16 15 15 14 14 14 13 12 11 12 12 11 11 9 2 357 353 347 341 335 332 333 333 331
90 87 83 78 75 69 64 60 54 50 45 40 35 30 26 23 20 18 16 14 12 10 10 9 9 10 10 10 12 11 10 7 2 358 355 351 347 341 335 335 335 332
94 90 87 81 77 71 66 62 56 52 46 41 38 33 28 24 21 19 17 15 13 11 10 8 7 8 10 12 13 8 5 4 1 359 357 351 346 343 338 338 337 335
93 89 84 78 74 68 65 60 54 51 45 41 38 33 29 26 22 20 18 15 14 12 11 10 8 10 13 13 9 3 2 3 2 0 357 351 345 343 342 341 339 337
90 86 79 73 70 64 59 55 50 46 42 38 36 31 29 27 23 21 19 17 15 13 11 9 10 14 14 9 2 1 2 360 359 358 355 352 346 342 341 340 338 336
92 85 77 71 66 60 55 49 44 40 36 33 30 28 26 24 23 22 20 18 16 14 13 10 13 14 9 4 3 5 3 357 353 352 351 351 348 344 342 339 337 335
102 90 81 74 66 59 52 44 39 35 31 29 26 23 22 21 21 20 19 18 16 15 14 13 15 14 7 7 9 6 0 354 351 347 345 346 346 346 345 341 339 338
113 103 93 82 71 61 52 44 38 31 28 27 23 21 21 19 18 17 17 17 15 15 15 14 15 15 10 9 8 3 357 353 349 344 341 340 341 343 344 342 340 339
120 113 106 96 84 71 59 49 40 33 28 23 19 20 20 18 16 14 13 13 13 13 13 14 15 15 12 9 3 357 355 350 346 344 340 338 337 339 340 339 337 336
127 121 115 107 97 84 72 61 50 41 32 24 20 19 17 15 14 11 9 10 11 11 11 13 16 15 11 6 1 357 353 349 345 343 342 339 338 339 338 337 337 335
145 142 137 127 111 92 74 63 55 45 35 27 24 20 17 15 12 9 8 8 8 8 7 9 14 16 9 1 360 358 354 349 345 341 341 341 340 339 337 336 336 336
155 152 150 148 135 111 86 66 49 35 27 22 19 16 14 13 11 9 8 6 5 5 4 4 9 12 6 359 357 357 354 350 345 340 338 337 337 338 337 336 337 336
159 156 152 149 139 129 121 91 53 28 19 13 11 8 5 4 4 5 5 2 1 2 0 1 4 6 3 356 354 354 353 350 345 341 337 335 334 334 334 335 335 334
162 160 156 151 139 128 120 99 77 53 29 13 6 359 354 354 354 356 358 356 354 357 356 356 359 3 2 355 351 351 349 347 345 341 336 334 333 333 333 333 332 331
163 161 157 152 143 135 121 98 84 63 33 15 7 357 349 350 349 347 348 348 348 350 350 351 353 356 359 354 349 348 346 344 343 340 336 333 332 332 332 330 329 327
163 161 156 149 142 138 130 106 82 57 26 12 3 353 347 347 344 342 341 341 343 343 342 343 345 349 355 352 347 346 344 343 342 341 339 336 333 333 331 328 326 323
162 158 151 146 141 134 128 111 87 51 12 3 352 341 341 340 336 337 338 336 337 338 336 336 338 346 353 348 345 347 346 343 343 342 340 336 333 331 328 324 323 322
159 153 144 141 136 128 120 106 83 49 360 350 340 330 332 332 329 331 332 331 332 333 332 331 334 345 352 343 342 347 347 345 345 341 337 334 330 328 325 322 322 322
150 144 137 132 127 121 114 103 81 44 353 337 327 321 322 324 322 323 325 327 329 330 332 333 334 339 342 337 341 346 345 345 344 338 332 330 328 326 324 323 323 324
129 127 122 112 109 107 100 91 73 31 344 325 316 313 316 317 318 320 321 326 332 332 336 341 336 331 331 334 338 341 341 342 341 335 329 326 324 323 321 321 323 324